Regional Weather Roundup
Issued by NWS

Home | Current Version | Previous Version | Graphics & Text | Print | Product List | Glossary On
Versions: 1 2 3 4 5 6 7 8 9 10 11 12 13 14 15 16 17 18 19 20 21 22 23 24 25 26 27 28 29 30 31 32 33 34 35 36 37 38 39 40 41 42 43 44 45 46 47 48 49 50
447
ASUS43 KLOT 250108
RWRIL

ILLINOIS REGIONAL WEATHER ROUNDUP
NATIONAL WEATHER SERVICE CHICAGO/ROMEOVILLE IL
800 PM CDT TUE MAY 24 2016

NOTE: "FAIR" INDICATES FEW OR NO CLOUDS BELOW 12,000 FEET WITH NO
SIGNIFICANT WEATHER AND/OR OBSTRUCTIONS TO VISIBILITY.

* THESE STATIONS ARE NOT UNDER NWS QUALITY CONTROL. THEY ALSO MAY NOT
  REPORT WEATHER SUCH AS PRECIPITATION OR FOG.

ILZ001-002-007-009-015-016-024-250200-
NORTHWEST ILLINOIS

CITY           SKY/WX    TMP DP  RH WIND       PRES   REMARKS
MOLINE         PTCLDY    81  59  47 SW3       29.90S HX  81
STERLING*      CLOUDY    83  58  42 CALM      29.91S HX  83
SAVANNA*       CLOUDY    80  63  55 CALM      29.90S HX  82
$$

ILZ003-004-008-010-011-017-018-250200-
NORTH CENTRAL ILLINOIS

CITY           SKY/WX    TMP DP  RH WIND       PRES   REMARKS
ROCKFORD       CLOUDY    82  55  39 SW5       29.93S HX  81
FREEPORT*      MOCLDY    77  58  51 SW6       29.94R
ROCHELLE*      CLOUDY    82  56  40 S13       29.92F HX  82
DE KALB*       PTCLDY    80  55  41 SW5       29.94S HX  80
$$

ILZ005-006-012>014-019>023-250200-
NORTHEAST ILLINOIS

CITY           SKY/WX    TMP DP  RH WIND       PRES   REMARKS
CHICAGO-OHARE  CLOUDY    82  52  35 S9        29.92S HX  81
CHICAGO-MIDWAY MOCLDY    84  51  31 SW14      29.93S HX  82
AURORA         CLOUDY    82  54  37 S9        29.93S HX  81
LANSING*       CLEAR     76  52  43 S8        29.95S
JOLIET*        PTCLDY    79  56  45 S5        29.94S HX  80
WAUKEGAN       CLOUDY    71  54  54 CALM      29.92S
DUPAGE AIRPORT MOCLDY    77  54  44 S9        29.92S
KANKAKEE*      PTCLDY   N/A N/A N/A S10       29.97S
WHEELING       PTCLDY    82  51  34 S9        29.93S HX  81
MORRIS*        MOCLDY    82  55  40 S8        29.93S HX  81
ROMEOVILLE*    PTCLDY    77  51  39 S10       29.94S
NORTHERLY ISL    N/A     84  48  28 S13         N/A  HX  82
NORTHERLY ISL    N/A     84  48  28 S13         N/A  HX  82
$$

LMZ740>746-250200-
SOUTHERN LAKE MICHIGAN

STATION/POSITION SKY/WX   TEMP    WIND        PRES    VSBY  WAVE
                          AIR SEA DIR/SP/G                  HT/PER
                          (F)     (DEG/KT/KT) (MB)    (MI)  (FT/S)
SOUTHERN BUOY              56 49  130/ 10/ 10 1013.2R         0
WILMETTE HARBOR            63 57  150/  6/  8   N/A           1
HARRISON CRIB              86     210/ 17/ 19   N/A
BURNHAM HARBOR             83     180/  8/ 15   N/A
CALUMET HARBOR             84                 1013.2R
BURNS HARBOR               83     200/ 14/ 19 1014.2R
MICHIGAN CITY              84     180/ 10/ 11   N/A
MICHIGAN CITY 6N           69 59  210/  6/  8   N/A           1/ 2
ST. JOSEPH                 74 59  160/  4/  4   N/A           0
$$

ILZ025>027-034>036-040-047-049-050-058-095>099-250200-
WEST-CENTRAL ILLINOIS

CITY           SKY/WX    TMP DP  RH WIND       PRES   REMARKS
QUINCY         PTCLDY    73  64  73 SW7       29.95R
GALESBURG*     PTCLDY    77  63  60 S10       29.93R
MACOMB*        PTCLDY    78  62  59 SW9       29.96R
JACKSONVILLE*  CLOUDY    78  64  62 S8        29.95R HX  80
PITTSFIELD*    CLOUDY    75  66  74 SW7       29.97R
$$

ILZ028>032-037-038-041>044-048-051>054-059>061-250200-
CENTRAL ILLINOIS

CITY           SKY/WX    TMP DP  RH WIND       PRES   REMARKS
PONTIAC        CLEAR     81  59  47 S10       29.96S HX  81
BLOOMINGTON    MOCLDY    78  63  60 S13       29.97F HX  80
DECATUR        CLOUDY    77  62  59 S8        29.98R
PEORIA         PTCLDY    78  61  55 SW6       29.93S HX  80
LACON*         CLOUDY    78  59  53 S5        29.92S
LINCOLN*       MOCLDY    79  64  60 S10       29.95R HX  81
SPRINGFIELD    PTCLDY    78  64  61 S6        29.95S HX  80
TAYLORVILLE    PTCLDY    75  65  71 S9        29.97R
$$

ILZ033-039-045-046-055>057-062-063-250200-
EAST-CENTRAL ILLINOIS

CITY           SKY/WX    TMP DP  RH WIND       PRES   REMARKS
CHAMPAIGN      MOCLDY    77  59  53 S12       29.99R
RANTOUL*       MOCLDY    80  61  51 SW12      29.98S HX  81
MATTOON        CLOUDY    74  59  59 S8        29.99F
PARIS*         PTCLDY    75  58  55 S5        30.01F
$$

ILZ079-100>102-250200-
SOUTHWEST ILLINOIS

CITY           SKY/WX    TMP DP  RH WIND       PRES   REMARKS
ALTON          CLOUDY    70  63  78 S9        29.98R
CAHOKIA*       CLOUDY    71  63  75 W3        29.97R
SPARTA*        CLOUDY    67  63  85 SE3       29.98R
$$

ILZ064>066-069>071-074>076-080>082-084>086-088>090-092>094-250200-
SOUTH-CENTRAL ILLINOIS

CITY           SKY/WX    TMP DP  RH WIND       PRES   REMARKS
CARBONDALE     CLOUDY    71  62  73 SW10G20   30.00R
CAIRO*         LGT RAIN  68  66  94 SE3       30.00F
EFFINGHAM*     MOCLDY    74  62  65 SE7       30.01R
MARION         CLOUDY    73  64  73 SW9G21    30.00R
MT. VERNON     MOCLDY    73  63  68 S5        29.99S
CENTRALIA*     CLOUDY    72  67  85 S5        29.98R
SALEM*         CLOUDY    76  65  68 S3        29.98R
METROPOLIS*    CLOUDY    72  65  79 SW6       30.03F
$$

ILZ067-068-072-073-078-083-087-091-250200-
SOUTHEAST ILLINOIS

CITY           SKY/WX    TMP DP  RH WIND       PRES   REMARKS
LAWRENCEVILLE  PTCLDY    76  58  53 SE8       30.01F
FLORA*         PTCLDY    75  62  64 SE9       29.99S
FAIRFIELD*     PTCLDY    74  64  70 SE3       29.98S
HARRISBURG*    PTCLDY    75  64  69 S10G16    29.99F
ROBINSON*      CLEAR     70  59  69 S6        30.02F
CARMI*         CLOUDY    73  65  75 S5        30.00S
$$

ABBREVIATIONS USED IN REMARKS
   TC - TEMPERATURE IN CELSIUS
  WCI - WIND CHILL INDEX
   HX - HEAT INDEX
  VSB - VISIBILITY
$$





USA.gov is the U.S. government's official web portal to all federal, state and local government web resources and services.